www.pogodaiklimat.ru

Погода и климат >> Архив погоды >> Россия >> Саратовская область >> Балаково


ПОГОДА в Балаково

АРХИВ ПОГОДЫ в Балаково

Время (UTC), дата Ветер
(напр.,м/с)
 
Видим.   Явления Облачность Т
(С)
Тd
(С)
f
(%)
Тe
(С)
Тes
(С)
Комфортность P
(гПа)
Po
(гПа)
Тmin
(С)
Tmax
(С)
R
(мм)
R24
(мм)
S
(см)
15 12.06 штиль 0 20 км 8/4 1000 м
[Cu med, cong Ac cuf Ci fib]
+31.5 +14.5 36 +33 +34 жарко 1011.9 1008.7 +33.4
18 12.06 С 2 20 км 10/0
[Ac cuf Ci fib]
+24.9 +15.7 57 +28 +28 жарко 1012.1 1008.8
21 12.06 С 5-10
{10}
20 км 10/0
[Ac und]
+23.5 +15.9 62 +27 +27 душно 1012.7 1009.4
00 13.06 СВ 6
{10}
20 км {ливн. осадки} 10/0
[Ac cuf Ci fib]
+19.7 +12.9 65 +21 +21 комфорт 1013.5 1010.2
03 13.06 СВ 6
{11}
20 км 10/4 1000 м
[Cb calv Ac cast Ci fib]
+18.0 +12.8 72 +17 +18 по сезону 1015.6 1012.2 +18.0 0.5
06 13.06 СВ 9-13
{14}
20 км {ливн. осадки} 10/8 1000 м
[Cb cap Ac und]
+14.6 +9.2 70 +12 +12 очень
холодно
1018.6 1015.2 +14.5
09 13.06 СВ 8-11
{14}
20 км ясно +19.3 +7.9 48 +19 +22 прохладно 1019.3 1016.0
12 13.06 СВ 9-14
{14}
20 км ясно +19.2 +4.2 37 +19 +20 холодно 1019.8 1016.4
15 13.06 СВ 7-11
{14}
20 км ясно +18.1 +3.9 39 +17 +18 холодно 1020.1 1016.7 +20.0 0.3
18 13.06 СВ 3
{11}
20 км ясно +12.3 +3.0 53 +11 +11 очень
холодно
1021.5 1018.0
21 13.06 В 2 20 км ясно +9.7 +3.2 64 +8 +8 очень
холодно
1022.0 1018.5
00 14.06 СВ 1 20 км ясно +9.6 +5.3 75 +9 +9 холодно 1022.5 1019.0
03 14.06 С 2 20 км 3/0
[Ci fib]
+14.6 +7.5 62 +14 +17 прохладно 1023.1 1019.7 +8.4
06 14.06 СЗ 3 20 км 10/0
[Ci fib]
+19.2 +3.3 35 +20 +28 по сезону 1022.8 1019.4
09 14.06 СЗ 3 20 км 5/0
[Ci fib]
+21.6 +3.8 31 +22 +35 комфорт 1020.7 1017.4
12 14.06 З 4 20 км 8/0
[Ci fib]
+22.9 +3.1 27 +23 +29 комфорт 1018.0 1014.6
15 14.06 З 4 20 км 10/0
[Ac trans Ci]
+22.9 +2.4 26 +22 +23 комфорт 1015.3 1012.0 +23.5
18 14.06 СЗ 1 20 км слаб. ливневой дождь 10/5 1000 м
[Cb calv Ac und]
+19.0 +6.7 45 +21 +21 комфорт 1014.1 1010.8
21 14.06 СВ 5 20 км {ливн. осадки} 10/5 1000 м
[Cb calv Ac und]
+13.8 +10.7 82 +12 +12 прохладно 1014.4 1011.0
00 15.06 СВ 1 20 км {ливн. осадки} 10/0
[Ac und]
+12.9 +10.3 84 +13 +13 по сезону 1013.1 1009.7
03 15.06 СВ 1 20 км 10/3 1000 м
[Cb calv Ac und]
+13.9 +11.0 83 +14 +15 прохладно 1012.6 1009.2 +12.7 0.5
06 15.06 СВ 4 20 км 10/3 1000 м
[Sc diur, vesp Ac As]
+15.3 +10.6 74 +14 +16 холодно 1013.7 1010.3
09 15.06 В 2 20 км 9/3 1000 м
[Cu med, cong Ac trans Ci fib]
+19.5 +9.2 51 +21 +28 комфорт 1013.2 1009.9
12 15.06 С 4 20 км 9/0
[Ac trans]
+19.9 +10.7 55 +21 +25 комфорт 1012.9 1009.6
15 15.06 СВ 4 20 км 5/3 1000 м
[Cu med, cong Ac trans Ci fib]
+19.3 +8.9 51 +20 +21 прохладно 1012.2 1008.8 +21.2
18 15.06 С 2 20 км 3/0
[Ci fib]
+12.3 +7.7 73 +11 +11 очень
холодно
1012.5 1009.1
21 15.06 В 2 20 км 4/0
[Ac trans Ci fib]
+10.6 +7.2 79 +9 +9 очень
холодно
1012.2 1008.8
00 16.06 В 1 20 км 3/0
[Ac trans]
+10.2 +7.0 81 +10 +10 прохладно 1011.7 1008.2
03 16.06 ЮЗ 1 20 км ясно +16.1 +8.6 61 +17 +20 по сезону 1011.7 1008.3 +9.1
06 16.06 ЮЗ 1 20 км 10/4 1000 м
[Sc Ac trans Ci fib]
+20.5 +7.5 43 +23 +27 комфорт 1011.5 1008.2
09 16.06 З 2 20 км 10/6 1000 м
[Cu Sc Ac trans Ci fib]
+22.8 +10.1 45 +25 +28 комфорт 1010.6 1007.3
12 16.06 ЮЗ 4 20 км 10/6 1000 м
[Cu Sc Ac cuf Ci sp]
+25.2 +9.1 36 +26 +27 жарко 1009.4 1006.1
15 16.06 С 4 20 км 8/6 1000 м
[Cu Sc Ac cuf]
+23.2 +12.4 51 +26 +26 жарко 1008.9 1005.6 +26.2
18 16.06 СВ 3 20 км 5/0
[Ac cuf]
+17.7 +9.7 59 +18 +18 по сезону 1010.2 1006.8
21 16.06 СВ 1 20 км ясно +13.1 +10.1 82 +13 +13 прохладно 1011.1 1007.7
00 17.06 С 1 20 км ясно +11.6 +10.0 90 +11 +11 прохладно 1012.1 1008.7
03 17.06 С 2 20 км ясно +17.6 +11.5 67 +18 +21 по сезону 1013.1 1009.7 +10.4
06 17.06 СЗ 3 20 км 3/3 1000 м
[Cu hum]
+23.2 +12.7 52 +26 +33 жарко 1013.4 1010.1
09 17.06 СЗ 2 20 км 4/4 1000 м
[Sc]
+25.5 +8.9 35 +26 +36 жарко 1013.2 1009.9
12 17.06 З 2 20 км 3/3 1000 м
[Sc]
+26.2 +8.0 32 +26 +34 жарко 1012.4 1009.1
15 17.06 З 2 20 км 3/0
[Ac trans Ci fib]
+26.6 +8.8 33 +27 +28 жарко 1011.3 1008.0 +27.4
18 17.06 З 2 20 км 9/0
[Ac trans Ci fib]
+19.6 +9.0 50 +21 +21 комфорт 1011.8 1008.4
21 17.06 З 1 20 км 8/0
[Ac trans]
+17.6 +10.8 64 +19 +19 тепло 1011.9 1008.5
00 18.06 Ю 1 20 км 10/4 1000 м
[Sc Ac trans Ci fib]
+12.6 +10.6 88 +13 +13 по сезону 1011.7 1008.3
03 18.06 З 1 20 км 10/0
[Ac trans Ci fib]
+19.7 +14.3 71 +23 +24 комфорт 1012.0 1008.7 +12.6
06 18.06 СЗ 3 20 км 6/0
[Ac cuf]
+25.7 +10.3 38 +27 +32 жарко 1012.1 1008.8
09 18.06 З 4 20 км 10/6 1000 м
[Cu Sc Ac cuf Ci fib]
+26.7 +9.6 34 +27 +29 жарко 1011.6 1008.3
12 18.06 ЮВ 1 20 км 10/6 1000 м
[Cu Sc Ac cuf Ci fib]
+26.8 +8.8 32 +27 +29 жарко 1010.3 1007.0
15 18.06 СЗ 3 20 км {ливн. осадки} 8/3 1000 м
[Sc Ac cuf Ci fib]
+27.1 +11.8 39 +28 +29 жарко 1009.8 1006.5 +28.6 0.0
18 18.06 С 2 20 км {ливн. осадки} 5/0
[Ac trans]
+19.1 +12.3 65 +21 +21 комфорт 1010.6 1007.3
21 18.06 З 1 20 км 10/0
[Ac und]
+19.3 +15.1 77 +22 +22 комфорт 1010.3 1007.0
00 19.06 СЗ 1 20 км 10/0
[Ac und]
+18.4 +13.9 75 +20 +20 тепло 1010.0 1006.6
03 19.06 В 1 20 км в посл. час ливневой дождь 10/5 1000 м
[Cb calv Ac cuf Ci fib]
+19.9 +16.9 83 +24 +24 комфорт 1010.1 1006.8 +17.2 0.1
06 19.06 ЮВ 1 20 км {ливн. осадки} 3/0
[Ac trans]
+25.3 +13.6 48 +27 +39 жарко 1010.3 1007.0
09 19.06 СЗ 1 20 км 3/3 1000 м
[Cu med, cong]
+28.3 +13.7 41 +30 +44 жарко 1010.1 1006.9
12 19.06 З 1 20 км в посл. час ливневой дождь 4/4 1000 м
[Cb cap]
+28.3 +13.1 39 +30 +37 жарко 1009.4 1006.2

 

Местоположение метеостанции Балаково (Саратовская область, Россия): широта 52.02 долгота 47.82 высота над уровнем моря 31 м.

В архиве по умолчанию представлена погода в Балаково за последнюю неделю. Архивные данные за месяц целиком и за предыдущие месяцы, начиная с января 2011 года, Вы можете получить, выбрав интересующий диапазон дат из раскрывающегося списка и нажав кнопку "Ввод!".


*Определитесь, кто Вы:
робот инопланетянин человек

Внимание! Время в таблицах - всемирное. Для получения местного времени необходимо прибавить поправку, которая равна 4 ч.

Смотрите также архив погоды в соседних городах и на ближайших метеорологических станциях:

Погода в Хвалынске (Саратовская область, Россия) (56 км)
Погода в Пугачеве (Саратовская область, Россия) (69 км)
Погода в Ершове (Саратовская область, Россия) (80 км)
Погода в Маркс (Саратовская область, Россия) (83 км)
Погода в Карабулаке (Саратовская область, Россия) (105 км)
Погода в Приволжье (Самарская область, Россия) (109 км)
Погода в Канадее (Ульяновская область, Россия) (127 км)
Погода в Красном Куте (Саратовская область, Россия) (133 км)
Погода в Саратове (Саратовская область, Россия) (133 км)
Погода в Саратове ЮВ (Саратовская область, Россия) (135 км)

Пояснения к столбцам:

Ветер - указаны скорость ветра в м/с - средняя за 10 мин, порывы в срок и между сроками (в фигурных скобках) и направление, откуда дует ветер: С - северный, СВ - северо-восточный, В - восточный, ЮВ - юго-восточный, Ю - южный, ЮЗ - юго-западный, З - западный, СЗ - северо-западный.
Видимость - горизонтальная дальность видимости в метрах или километрах. При видимости от 1 до 10 км при отсутствии осадков обычно наблюдается дымка, при ухудшении видимости до 1 км и менее - туман. В сухую погоду видимость может ухудшаться дымом, пылью или мглою.
Явления - указаны атмосферные явления, наблюдавшиеся в срок или в последний час перед сроком; фигурными скобками обозначены явления, наблюдавшиеся между сроками (за 1-3 часа до срока); квадратными скобками обозначены град или гололедные отложения с указанием их диаметра в мм.
Облачность - указаны через наклонную черту общая и нижняя облачность в баллах и высота нижней границы облаков в метрах; квадратными скобками обозначены формы облаков: Ci - перистые, Cs - перисто-слоистые, Cc - перисто-кучевые, Ac - высококучевые, As - высокослоистые, Sc - слоисто-кучевые, Ns - слоисто-дождевые, Cu - кучевые, Cb - кучево-дождевые. Подробнее классификацию облаков см. в Атласе облаков (PDF).
T - Температура воздуха - температура, измеренная на высоте 2 м над землей.
Td - Температура точки росы - температура, при понижении до которой содержащийся в воздухе водяной пар достигнет насыщения.
f - Относительная влажность воздуха - влажноcть воздуха, измеренная на высоте 2 м над землей.
Te - Эффективная температура - температура, которую ощущает одетый по сезону человек в тени. Характеристика душности погоды. При расчете учитывается влияние влажности воздуха и скорости ветра на теплоощущения человека.
Tes - Эффективная температура на солнце - температура, которую ощущает человек, с поправкой на солнечный нагрев. Характеристика знойности погоды. Зависит от высоты солнца над горизонтом, облачности и скорости ветра. Ночью, в пасмурную погоду, а также при ветре 12 м/с и более поправка равна нулю.
P - Атмосферное давление - приведенное к уровню моря атмосферное давление.
Po - Атмосферное давление - измеренное на уровне метеостанции атмосферное давление.
Tmin - Минимальная температура - минимум температуры воздуха на высоте 2 м над землей.
Tmax - Максимальная температура - максимум температуры воздуха на высоте 2 м над землей.
R - Количество осадков - Количество выпавших осадков за период времени, мм. При наведении курсора мыши на число - период времени, за который выпало указанное количество осадков.
R24 - Количество осадков - Количество выпавших осадков за 24 часа, мм.
S - Снежный покров - Высота снежного покрова, см. При наведении курсора мыши на число - состояние снежного покрова и степень покрытия местности в баллах.